This demonstration page uses our WeatherBlox Daily Observations layout. Learn more.

Left ArrowRight Arrow

41.12389, -100.76542

Hourly Observations for May 24, 2022

Temp ( °F °C ) Dew Point ( °F °C ) Humidity (%) Winds ( mph kmh ) Pressure ( in mb ) Visibility ( mi km ) Precip ( " mm )
12:12 am 00:12 Cloudy 47 8.3 44 6.7 90 90 E 6 9 30.15 1021 10 16 0.00 0.00
12:25 am 00:25 Cloudy 47 8.3 44 6.7 90 90 E 6 9 30.14 1021 10 16 0.00 0.00
12:53 am 00:53 Cloudy 47 8.3 44 6.7 90 90 E 7 11 30.14 1021 10 16 0.00 0.00
1:53 am 01:53 Cloudy 47 8.3 44 6.7 90 90 E 6 9 30.11 1020 10 16 0.00 0.00
2:05 am 02:05 Cloudy 46 7.8 44 6.7 93 93 E 5 7 30.12 1020 10 16 0.00 0.00
2:53 am 02:53 Cloudy 46 7.8 43 6.1 89 89 E 3 6 30.10 1019 10 16 0.00 0.00
3:53 am 03:53 Cloudy 45 7.2 43 6.1 93 93 Calm 30.09 1019 10 16 0.00 0.00
4:53 am 04:53 Cloudy 46 7.8 43 6.1 89 89 E 3 6 30.09 1019 10 16 0.00 0.00
5:53 am 05:53 Cloudy 46 7.8 43 6.1 89 89 ESE 3 6 30.09 1019 10 16 0.00 0.00
6:53 am 06:53 Cloudy 46 7.8 44 6.7 93 93 Calm 30.08 1019 10 16 0.00 0.00
7:53 am 07:53 Cloudy 49 9.4 44 6.7 83 83 NNE 5 7 30.08 1019 10 16 0.00 0.00
8:53 am 08:53 Cloudy 51 10.6 44 6.7 77 77 NE 8 13 30.07 1018 10 16 0.00 0.00
9:53 am 09:53 Cloudy 53 11.7 43 6.1 69 69 ENE 9 15 30.06 1018 10 16 0.00 0.00
10:53 am 10:53 Cloudy 54 12.2 43 6.1 67 67 ENE 7 11 30.04 1017 10 16 0.00 0.00
11:53 am 11:53 Cloudy 56 13.3 43 6.1 62 62 ENE 8 13 30.04 1017 10 16 0.00 0.00
12:53 pm 12:53 Cloudy 58 14.4 41 5 53 53 NE 13 20 30.03 1017 10 16 0.00 0.00
1:53 pm 13:53 Cloudy 58 14.4 40 4.4 51 51 NE 12 19 30.01 1016 10 16 0.00 0.00
2:53 pm 14:53 Cloudy 56 13.3 43 6.1 62 62 ENE 13 20 30.00 1016 10 16 0.00 0.00
3:53 pm 15:53 Cloudy 56 13.3 43 6.1 62 62 ENE 9 15 30.00 1016 10 16 0.00 0.00
4:53 pm 16:53 Cloudy 56 13.3 42 5.6 60 60 NE 8 13 30.00 1016 10 16 0.00 0.00
5:53 pm 17:53 Cloudy with Light Rain 55 12.8 42 5.6 62 62 NE 10 17 29.99 1016 10 16 0.00 0.00
6:53 pm 18:53 Cloudy with Light Rain 55 12.8 44 6.7 67 67 NNE 12 19 29.98 1015 10 16 0.00 0.00
7:31 pm 19:31 Cloudy with Light Rain 52 11.1 48 8.9 86 86 ESE 12 19 29.97 1015 10 16 0.00 0.00
7:48 pm 19:48 Cloudy with Light Rain 52 11 48 9 88 88 ESE 9 15 29.97 1015 9 14 0.01 0.25
7:53 pm 19:53 Cloudy with Light Rain 51 10.6 48 8.9 89 89 ESE 10 17 29.99 1016 9 14 0.01 0.25
8:03 pm 20:03 Cloudy with Light Rain 50 10 47 8.3 89 89 ESE 7 11 29.98 1015 10 16 0.00 0.00
8:53 pm 20:53 Cloudy with Light Rain 50 10 47 8.3 89 89 E 3 6 30.00 1016 10 16 0.01 0.25
9:04 pm 21:04 Cloudy with Light Rain 50 10 46 7.8 86 86 ENE 5 7 29.99 1016 10 16 0.00 0.00
9:15 pm 21:15 Cloudy with Light Rain 50 10 46 7.8 86 86 NE 3 6 30.00 1016 10 16 0.00 0.00
9:53 pm 21:53 Cloudy with Light Rain 50 10 46 7.8 86 86 NNE 5 7 30.02 1017 10 16 0.01 0.25
10:37 pm 22:37 Cloudy with Light Rain 50 10 46 7.8 86 86 NE 12 19 30.04 1017 10 16 0.01 0.25
10:53 pm 22:53 Cloudy with Light Rain 49 9.4 45 7.2 86 86 NE 12 19 30.04 1017 10 16 0.01 0.25
11:53 pm 23:53 Cloudy with Light Rain 48 8.9 44 6.7 86 86 NNE 8 13 30.02 1017 10 16 0.02 0.51

Powered by AerisWeather